Home   Weather   Makassar   Past weeks

Flag for Indonesia Past Weather in Makassar, South Sulawesi, Indonesia — Yesterday and Last 2 Weeks

Now
86 °F

Scattered clouds.


Feels Like: 93 °F
Forecast: 76 / 88 °F
Wind: 6 mph from Northwest

Location: Ujung Pandang / Hasanuddin

Current Time: Apr 24, 2017 at 11:40:26 am

Latest Report: Apr 24, 2017 at 11:00 am


Visibility: N/A

Pressure: 29.89 "Hg

Humidity: 66%

Dew Point: 73 °F

Location of MakassarLocation

Past Weather in Makassar — Graph

°F

Makassar Temperature Yesterday

Maximum temperature yesterday: 88 °F (at 12:00 pm)
Minimum temperature yesterday: 77 °F (at 12:30 am)
Average temperature yesterday: 80 °F

High & Low Weather Summary for the Past Weeks

 TemperatureHumidityPressure
High93 °F (Apr 12, 11:30 am)100% (Apr 10, 3:30 am)29.92 "Hg (Apr 10, 3:30 am)
Low73 °F (Apr 10, 5:30 am)49% (Apr 12, 12:00 pm)29.71 "Hg (Apr 10, 3:00 pm)
Average81 °F81%29.82 "Hg
* Reported Apr 9 10:00 am — Apr 24 10:00 am, Makassar, Weather by CustomWeather, © 2017

Note: Actual official high and low records may vary slightly from our data, if they occured in-between our weather recording intervals... More about our weather records

Advertising

Makassar Weather History for the Previous 24 Hours

Scroll right to see more
 ConditionsComfort  
Time TempWeatherWind HumidityBarometerVisibility
10:00 am
Mon, Apr 24
84 °FPassing clouds.3 mph70%29.92 "HgN/A
9:30 am82 °FPassing clouds.3 mph74%29.92 "HgN/A
9:00 am81 °FPassing clouds.2 mph79%29.92 "HgN/A
8:30 am84 °FPassing clouds.3 mph79%29.92 "HgN/A
8:00 am75 °FPassing clouds.2 mph89%29.89 "HgN/A
7:30 am73 °FPassing clouds.3 mph89%29.89 "HgN/A
7:00 am73 °FPassing clouds.2 mph89%29.89 "HgN/A
6:30 am73 °FPassing clouds.2 mph89%29.89 "Hg6 mi
6:00 am73 °FPassing clouds.3 mph89%29.89 "Hg5 mi
5:30 am73 °FPassing clouds.3 mph89%29.89 "Hg5 mi
4:30 am73 °FPassing clouds.2 mph89%29.86 "Hg5 mi
4:00 am73 °FPassing clouds.3 mph89%29.86 "Hg5 mi
3:30 am73 °FPassing clouds.2 mph89%29.86 "Hg5 mi
3:00 am73 °FPassing clouds.5 mph89%29.86 "Hg5 mi
2:30 am75 °FPassing clouds.2 mph83%29.86 "Hg5 mi
2:00 am75 °FPassing clouds.2 mph89%29.86 "Hg5 mi
1:30 am75 °FPassing clouds.2 mph89%29.89 "Hg5 mi
1:00 am75 °FPassing clouds.1 mph89%29.89 "Hg5 mi
12:30 am75 °FPassing clouds.2 mph89%29.89 "Hg5 mi
12:00 am75 °FPassing clouds.3 mph89%29.92 "Hg5 mi
11:30 pm
Sun, Apr 23
77 °FPassing clouds.2 mph89%29.92 "Hg5 mi
11:00 pm77 °FPassing clouds.2 mph89%29.92 "Hg5 mi
10:30 pm77 °FPassing clouds.2 mph89%29.92 "Hg5 mi
10:00 pm77 °FPassing clouds.No wind89%29.92 "Hg5 mi
9:00 pm79 °FPassing clouds.2 mph84%29.89 "Hg5 mi
8:00 pm79 °FPassing clouds.1 mph84%29.89 "Hg5 mi
7:30 pm81 °FPassing clouds.1 mph79%29.86 "Hg5 mi
7:00 pm81 °FPassing clouds.No wind79%29.86 "Hg5 mi
6:30 pm81 °FPassing clouds.2 mph94%29.86 "Hg5 mi
6:00 pm81 °FPassing clouds.2 mph79%29.83 "Hg5 mi
5:30 pm82 °FScattered clouds.5 mph74%29.83 "Hg5 mi
5:00 pm82 °FScattered clouds.2 mph74%29.80 "Hg5 mi
4:30 pm82 °FScattered clouds.2 mph74%29.80 "Hg5 mi
3:30 pm82 °FScattered clouds.5 mph74%29.80 "Hg5 mi
3:00 pm82 °FPassing clouds.6 mph74%29.80 "HgN/A
2:30 pm82 °FPassing clouds.6 mph74%29.80 "HgN/A
2:00 pm84 °FPassing clouds.6 mph74%29.80 "HgN/A
1:30 pm84 °FScattered clouds.5 mph89%29.83 "Hg6 mi
1:00 pm84 °FLight rain. Scattered clouds.7 mph84%29.83 "Hg5 mi
12:30 pm88 °FScattered clouds.6 mph70%29.83 "Hg6 mi
12:00 pm88 °FPassing clouds.5 mph75%29.86 "HgN/A
11:30 am86 °FScattered clouds.5 mph84%29.89 "HgN/A
Weather by CustomWeather, © 2017

See weather overviewHow to use our weather pages